カタログに戻る

STARLINK-3631

運用中通信VLEO
NORAD 51790·PAYLOAD·🇺🇸 United States

打ち上げ Feb 25, 2022 から Vandenberg Space Force Base

Loading…

次のパス (今後24時間)

TLE

最新Source: CelesTrak SupGP

元期: Sep 14, 2026, 20:50 UTC

1 51790C 22017Y   26257.86854167  .00038615  00000+0  22787-2 0  2578
2 51790  53.2114 219.0681 0002702  85.2120 191.9914 15.11023995    17

AllMySatでSTARLINK-3631をリアルタイム追跡

Download on the App Store